Location: Newark
(55.7083°N, 13.1992°E)
Time: 09:39:11
(UTC+00:00)

Vanguard 2 - Visible Passes

Search period start: 28 February 2020 00:00
Search period end: 09 March 2020 00:00
Orbit: 552 x 2939 km, 32.9° (Epoch: 27 February)

Date Brightness Start Highest point End Pass type
(mag) Time Alt. Az. Time Alt. Az. Time Alt. Az.
28 Feb 10.6 02:19:29 22° S 02:19:39 22° S 02:29:02 10° SE visible
28 Feb 10.8 04:20:53 11° SW 04:28:03 19° SSW 04:37:39 10° SSE visible
29 Feb 11.2 00:34:56 10° SE 00:34:56 10° SE 00:35:05 10° SE visible
29 Feb 10.5 02:36:21 21° S 02:37:00 21° S 02:46:03 10° SE visible
29 Feb 10.9 04:38:45 10° SW 04:45:24 16° SSW 04:53:22 10° S visible
01 Mar 11.1 00:51:50 11° SE 00:51:50 11° SE 00:52:45 10° SE visible
01 Mar 10.6 02:53:14 19° SSW 02:54:23 19° S 03:02:47 10° SSE visible
01 Mar 11.0 04:58:01 10° SW 05:02:44 13° SSW 05:08:04 10° S visible
02 Mar 11.0 01:08:46 12° SE 01:08:46 12° SE 01:10:08 10° SE visible
02 Mar 10.6 03:10:11 16° SSW 03:11:46 17° S 03:19:09 10° SSE visible
03 Mar 11.0 01:25:45 12° SSE 01:25:45 12° SSE 01:27:16 10° SE visible
03 Mar 10.7 03:27:10 13° SSW 03:29:11 14° SSW 03:34:54 10° S visible
04 Mar 11.0 01:42:47 12° SSE 01:42:47 12° SSE 01:44:04 10° SSE visible
04 Mar 10.8 03:44:12 10° SSW 03:46:34 11° SSW 03:49:11 10° S visible
05 Mar 11.0 01:59:52 11° SSE 01:59:52 11° SSE 02:00:23 10° SSE visible
